GFSNE_prec_cloud_057.txt.gz
Cloud_Cover
0 0 0 0 0 0 0 0 0 0 0 0 0 0 0 0 0 0 4 5 5 5 5 5 21 100 100 94 53 99 85 100 94 85 100 46 77 100
0 0 0 0 0 0 0 0 0 0 0 0 0 0 0 0 0 0 36 4 3 5 5 25 92 100 100 100 99 100 100 100 100 100 100 98 99 100
0 0 0 0 0 0 0 0 0 0 0 0 0 0 0 0 0 0 1 0 6 2 2 4 32 10 98 100 100 100 100 100 100 100 100 53 68 34
0 0 0 0 0 0 0 0 0 0 0 0 0 0 0 0 0 0 5 4 5 6 5 5 28 36 5 57 98 86 99 100 100 100 100 23 29 48
0 0 0 0 0 0 0 0 1 4 3 5 2 0 0 0 0 0 0 0 0 5 68 98 86 99 98 70 9 71 88 100 99 100 64 84 26 38
0 0 0 0 0 0 0 0 0 0 3 5 5 5 5 3 2 5 2 0 0 0 0 0 5 84 84 68 32 7 13 57 100 91 100 38 22 20
0 0 0 0 0 0 0 0 0 0 0 5 5 5 22 23 10 5 2 6 91 68 4 39 5 6 65 21 46 100 100 95 99 68 5 5 5 6
0 0 0 0 0 0 0 0 0 0 0 0 5 5 43 15 14 100 100 97 19 100 93 5 5 16 96 100 76 100 100 72 43 52 5 2 5 34
0 0 0 0 0 0 0 0 0 0 0 0 1 1 2 5 43 92 100 100 100 99 100 6 5 5 79 100 43 91 0 0 0 0 0 0 0 0
0 0 0 0 0 0 0 0 0 0 0 0 0 0 0 0 3 5 22 62 100 60 78 13 4 10 72 100 87 0 0 0 0 0 5 0 0 0
0 0 0 0 0 0 0 0 0 0 0 0 0 0 0 0 0 3 71 99 83 54 16 16 35 79 100 94 5 0 0 0 0 0 0 0 0 0
0 0 0 0 0 0 0 0 0 0 0 0 0 9 39 0 0 2 70 79 17 71 8 80 100 92 100 47 2 0 0 0 0 0 0 0 0 35
0 0 0 0 0 0 0 0 0 0 0 0 0 0 0 0 2 14 6 13 32 64 35 82 61 100 100 99 3 0 0 0 0 0 0 0 3 97
0 0 0 0 0 17 24 18 8 48 0 0 0 0 0 4 4 81 97 54 91 100 27 14 40 82 99 61 0 0 0 0 0 0 0 0 0 23
0 0 1 0 83 38 20 30 5 6 39 24 22 23 9 30 79 46 58 66 70 8 24 24 10 42 10 1 0 0 0 0 0 0 0 0 38 87
0 7 2 11 77 99 100 100 99 86 26 71 67 77 72 62 26 43 49 100 53 1 5 5 5 1 0 0 0 0 0 0 4 0 0 1 39 100
0 0 3 32 100 100 92 100 100 100 100 100 71 100 100 100 54 20 92 94 7 5 23 0 8 0 0 0 0 0 0 0 0 0 0 0 42 100
5 4 5 90 100 100 100 100 100 100 100 100 100 100 100 100 98 100 62 98 45 73 8 4 30 60 44 0 0 0 0 0 0 0 0 9 3 48
5 34 100 100 100 100 100 100 100 100 100 100 100 100 100 100 100 100 68 81 91 5 7 62 100 98 5 5 1 4 0 0 0 0 1 9 25 14
9 100 100 100 100 100 100 100 100 100 100 100 100 100 100 100 100 100 100 100 100 59 100 92 28 16 93 41 36 5 98 0 1 5 5 5 0 0
86 100 100 100 100 100 100 100 100 100 100 100 100 100 100 100 100 100 100 100 100 100 100 100 93 15 4 5 1 4 2 0 0 0 0 0 4 4
100 100 100 100 100 100 100 100 100 100 100 100 100 100 100 100 100 100 100 100 100 100 100 100 100 100 16 1 7 1 3 5 0 0 0 0 0 0
46 19 52 100 100 100 100 100 100 100 100 100 100 100 100 99 100 100 100 100 100 100 100 100 100 56 25 0 23 12 36 7 34 10 99 8 4 5

GFSNE_prec_cloud_060.txt.gz
Cloud_Cover
0 0 0 0 0 0 0 0 0 0 0 0 0 0 0 0 0 0 4 6 4 13 57 50 100 100 100 100 87 100 100 100 100 100 96 100 24 76
0 0 0 0 0 0 0 0 0 0 0 0 0 0 0 0 0 0 2 5 5 5 5 7 37 67 66 100 91 100 100 100 100 100 100 47 83 74
0 0 0 0 0 0 0 0 0 0 0 0 0 0 0 0 0 0 0 0 4 64 61 50 22 5 57 7 88 100 100 100 46 100 83 50 14 97
0 0 0 0 0 0 0 0 0 0 0 0 0 0 0 5 0 0 0 0 0 0 3 6 5 7 51 58 28 20 62 31 99 100 78 5 83 42
0 0 0 0 0 0 0 0 0 0 0 0 0 0 1 5 3 4 5 1 1 0 0 5 5 5 4 4 5 5 5 80 99 63 4 16 5 5
0 0 0 0 0 0 0 0 0 0 0 0 2 5 5 5 5 5 22 73 20 5 5 5 0 0 0 14 10 50 98 17 1 0 0 0 0 1
0 3 8 21 3 0 0 0 0 0 0 5 5 5 17 5 5 2 5 72 100 92 5 70 0 5 0 5 62 100 19 4 0 0 0 0 0 0
5 22 10 5 0 0 0 0 0 0 0 1 1 12 5 5 4 0 0 0 6 5 100 7 0 0 5 26 38 78 6 1 0 0 0 0 0 0
5 5 5 8 0 0 0 1 0 1 0 0 0 0 1 0 0 5 5 10 6 39 88 28 6 5 20 41 5 9 4 0 0 0 0 0 0 0
4 5 3 0 0 0 0 0 0 0 0 0 0 0 0 0 0 0 0 2 76 100 40 68 99 92 97 3 5 5 4 0 0 0 0 0 0 0
0 0 0 0 0 0 0 0 0 0 0 0 0 0 0 0 0 0 8 44 79 97 5 48 49 100 43 5 5 8 1 0 0 0 0 0 0 0
0 0 0 0 0 1 0 18 6 5 4 5 3 4 53 11 21 12 48 74 54 100 5 84 100 100 56 0 1 5 0 0 0 0 0 0 0 0
0 0 0 3 2 4 71 100 100 54 13 8 5 6 5 5 8 65 24 23 38 33 33 93 89 91 0 0 0 0 0 0 0 1 1 0 0 36
0 0 0 0 2 7 12 98 99 20 5 5 5 5 31 7 19 38 38 84 100 88 100 73 45 93 72 5 16 65 34 5 0 5 5 5 5 92
0 0 0 0 0 24 8 14 86 100 95 77 91 50 5 5 57 98 100 100 92 37 58 52 49 10 23 33 76 16 5 6 5 2 0 5 21 9
0 0 0 0 2 8 100 100 100 100 100 100 100 100 72 33 59 100 100 84 21 100 100 96 100 100 98 41 75 23 6 80 85 14 5 4 5 32
20 18 20 33 26 91 100 100 100 100 100 100 100 100 100 100 100 97 91 100 100 100 100 100 100 100 91 100 100 100 84 100 80 38 6 2 2 65
58 65 57 72 74 100 100 89 100 100 100 100 100 100 100 100 100 100 100 100 100 100 100 100 100 100 100 100 99 92 98 100 48 98 100 9 0 24
19 37 48 46 15 100 100 100 100 100 100 100 100 100 100 100 72 100 100 100 100 100 100 100 100 100 100 100 100 100 100 100 100 80 100 30 1 2
41 23 100 100 87 86 46 48 71 100 100 100 100 100 100 100 100 100 100 100 100 100 100 100 100 100 100 100 5 5 56 63 84 100 81 55 6 5
100 100 100 100 100 98 100 73 99 94 99 100 100 100 100 100 100 100 98 100 98 89 100 85 100 100 100 100 22 0 5 42 5 5 19 37 5 3
100 100 100 100 100 100 100 100 100 100 100 100 100 100 100 100 100 100 100 100 100 100 70 31 100 100 100 100 100 54 0 5 4 5 5 6 5 0
100 100 100 100 100 100 100 100 89 100 100 100 100 100 100 100 100 100 100 100 58 89 61 100 100 100 100 100 100 36 87 98 24 3 3 8 18 8

GFSNE_prec_cloud_063.txt.gz
Cloud_Cover
0 0 0 0 0 0 0 5 0 0 0 0 0 0 0 0 0 3 1 4 5 5 5 32 100 100 100 86 96 87 100 100 24 100 88 20 97 23
0 0 0 0 0 0 0 0 0 5 5 5 2 0 0 0 0 0 0 0 0 0 0 5 78 99 100 93 100 100 100 74 57 21 84 0 2 64
0 0 0 0 0 0 0 0 0 2 5 4 5 2 0 0 0 4 13 5 5 5 5 5 18 19 17 38 95 70 100 6 3 0 0 0 30 60
0 0 2 5 4 0 0 0 0 0 0 0 0 0 0 0 0 0 1 5 5 5 5 6 22 6 5 6 12 19 99 5 5 0 0 0 0 1
0 5 5 23 16 5 0 0 0 0 0 0 0 0 3 0 0 0 0 0 2 9 5 34 6 4 0 0 0 4 10 36 3 0 0 0 0 0
2 5 23 68 78 24 2 0 0 0 0 0 0 0 2 0 0 0 0 0 0 5 2 5 15 13 31 12 6 17 44 25 2 0 0 0 0 0
5 18 24 44 61 94 5 0 0 0 0 1 4 4 0 0 0 0 4 0 0 0 1 1 0 0 4 5 5 6 5 8 2 0 0 0 0 0
1 0 5 46 68 44 0 0 0 0 0 1 0 2 0 3 0 0 0 0 14 0 56 82 5 39 13 6 79 43 5 5 2 0 0 0 0 0
0 0 4 10 4 0 0 3 1 5 3 0 1 4 0 0 0 0 0 5 11 0 60 74 75 61 51 20 9 4 5 5 4 0 0 0 0 0
0 0 0 1 0 0 0 4 5 5 4 5 5 5 5 3 2 0 0 4 18 18 100 97 55 12 75 59 5 5 4 13 3 0 0 0 0 0
0 0 0 0 0 0 0 1 42 11 32 5 5 5 5 5 5 3 21 48 15 76 96 96 6 52 100 97 5 5 5 5 1 0 1 0 0 0
0 0 0 0 0 14 2 0 15 7 22 5 5 37 77 100 28 9 16 98 100 96 36 65 27 100 100 95 20 41 6 5 5 5 6 5 5 0
0 0 0 0 11 23 55 4 5 5 17 6 7 21 20 9 100 100 83 100 100 97 50 96 97 100 100 81 42 6 26 21 5 5 5 5 5 22
0 0 0 0 2 24 43 24 12 48 20 18 38 66 54 86 80 59 37 89 100 99 22 94 100 51 96 38 82 100 99 32 6 5 5 5 5 5
0 0 0 0 2 20 10 17 50 100 100 98 100 100 100 77 86 30 8 98 100 100 98 73 98 96 100 100 100 100 100 100 100 99 35 9 25 30
0 5 0 1 5 0 5 9 5 64 40 96 100 100 97 61 21 43 25 88 100 100 90 100 99 100 91 100 100 100 100 100 100 100 100 100 14 34
11 65 85 61 39 18 4 18 90 100 100 99 100 100 100 100 100 100 98 100 100 100 100 59 73 43 26 69 91 100 100 100 100 100 100 100 91 39
94 100 100 100 100 61 42 8 88 21 97 100 35 68 51 47 100 100 100 100 100 100 100 100 43 48 36 50 90 59 66 100 100 100 100 100 100 99
60 99 100 100 75 73 36 90 86 10 33 94 64 30 49 85 100 100 100 100 100 100 100 100 100 100 100 100 100 100 100 100 100 96 100 100 100 100
100 100 100 100 100 100 100 91 100 26 50 71 81 72 82 97 100 100 100 100 100 100 100 94 100 100 100 100 100 100 100 100 100 100 98 100 100 100
100 100 100 100 100 100 100 100 100 100 100 100 100 100 100 100 82 98 91 100 100 100 99 100 100 100 100 100 100 100 100 100 100 96 100 100 100 100
57 95 100 100 100 100 100 100 100 100 100 100 100 100 100 87 93 97 100 100 99 100 99 100 100 100 95 100 100 83 100 100 100 100 100 100 100 100
100 100 100 100 100 100 100 100 100 100 100 100 100 100 100 88 94 96 62 79 100 100 99 100 85 30 59 86 85 100 100 100 100 100 100 100 100 100

GFSNE_prec_cloud_069.txt.gz
Cloud_Cover
0 0 0 0 0 0 0 0 0 0 0 0 0 0 4 4 4 5 6 7 77 100 55 36 5 34 22 5 5 5 52 53 21 7 0 3 4 5
0 0 0 5 5 0 0 0 0 0 0 0 0 0 0 0 0 0 0 0 1 3 0 0 0 0 2 4 1 0 3 5 29 15 0 5 5 5
0 0 0 5 5 4 0 0 0 0 0 0 0 0 0 0 0 0 0 0 0 0 0 0 0 1 5 5 5 5 5 22 77 4 0 5 5 0
0 0 1 5 5 4 0 0 0 0 0 0 0 0 0 0 0 0 0 0 0 0 0 0 1 5 18 88 99 88 40 57 10 5 5 5 5 0
0 0 0 3 6 5 5 0 4 0 0 0 0 0 0 0 0 1 0 0 4 5 5 5 8 97 100 100 100 84 88 5 5 3 5 5 5 4
0 0 0 2 4 5 5 3 5 0 0 5 5 0 3 1 0 4 3 0 0 4 72 97 100 86 100 100 100 99 70 2 1 3 5 5 12 13
0 0 0 0 0 5 5 2 5 5 5 2 7 30 57 5 5 5 5 4 4 5 5 63 97 82 72 100 70 100 100 17 12 5 6 25 5 64
0 0 0 0 16 2 0 0 5 1 5 5 93 5 11 68 26 4 5 5 5 47 66 79 16 20 100 98 19 97 100 100 100 100 100 40 98 5
0 0 0 0 0 0 16 25 36 6 9 5 5 19 16 6 5 5 5 21 9 75 97 96 93 81 23 28 76 100 100 70 100 92 100 27 59 10
0 0 0 0 0 0 0 0 0 4 2 5 5 5 5 5 1 12 32 24 8 32 19 66 80 100 70 52 27 92 14 99 33 52 100 24 62 42
0 0 0 0 0 0 0 0 0 0 3 3 5 5 5 5 56 9 5 5 5 4 5 58 10 72 3 5 8 7 50 48 18 37 100 36 8 41
0 0 0 0 0 0 0 0 0 0 0 5 1 36 58 5 42 9 17 4 5 5 5 4 20 15 68 8 23 5 14 100 100 100 100 13 83 33
0 0 0 0 5 35 51 1 5 4 0 5 5 5 5 5 5 5 5 6 5 10 6 6 5 65 62 33 4 32 87 100 100 100 100 100 56 54
0 0 0 0 27 45 82 1 4 70 0 5 5 27 20 5 5 6 12 5 5 3 5 6 63 47 81 82 62 60 100 100 100 100 100 100 100 11
0 0 0 0 24 68 78 0 75 6 0 4 5 20 77 83 97 100 97 5 22 16 2 36 43 32 77 73 70 100 100 100 100 100 100 100 100 100
0 4 0 9 9 13 22 34 1 0 3 5 5 24 52 64 31 89 68 86 59 2 10 62 84 75 100 100 97 100 100 100 100 96 100 100 100 100
0 3 15 33 11 6 15 20 4 4 0 2 4 5 6 99 98 90 52 5 2 4 5 44 89 93 100 100 100 100 100 100 100 85 86 100 100 100
10 17 34 36 96 100 100 7 0 0 4 41 84 100 62 58 68 97 32 5 4 25 16 12 75 77 92 100 100 100 93 88 72 99 100 100 100 100
100 54 35 53 61 99 66 30 2 5 37 100 100 100 100 100 100 100 100 100 95 46 58 89 100 100 100 100 100 100 60 46 19 99 100 95 88 45
100 97 97 85 100 96 98 93 75 100 100 100 100 100 100 100 100 100 100 100 100 98 88 100 100 100 100 84 57 52 83 93 88 82 80 76 25 58
100 99 100 88 87 62 46 82 98 100 100 100 100 100 100 100 100 100 100 100 100 100 100 100 96 99 66 68 56 55 25 61 84 93 100 86 70 53
100 100 46 96 100 100 90 98 100 100 100 100 100 100 100 100 100 95 73 100 100 100 100 100 99 85 75 56 51 89 85 98 100 97 100 97 98 25
84 97 86 100 100 95 99 100 100 100 100 100 100 100 100 100 100 100 100 100 100 100 100 100 100 98 71 62 75 100 100 100 96 100 100 100 100 100

GFSNE_prec_cloud_072.txt.gz
Cloud_Cover
0 0 9 16 1 0 0 0 1 19 1 0 0 0 0 0 0 0 0 0 0 0 2 5 5 5 5 5 5 5 5 5 0 1 5 5 0 6
0 0 5 10 5 5 1 0 0 0 3 0 0 2 0 0 0 0 0 0 2 5 5 5 5 5 5 5 9 5 5 3 5 5 5 5 2 0
0 0 1 5 29 19 3 0 0 0 0 0 0 0 0 0 0 1 0 5 5 5 11 20 5 52 34 31 100 79 82 6 5 5 44 68 5 3
0 0 3 0 5 5 9 0 0 0 0 5 0 0 0 0 0 5 5 5 5 5 7 100 88 73 94 64 100 100 38 78 53 74 77 100 100 14
0 0 0 0 4 5 18 2 0 5 5 7 24 23 22 4 0 2 5 5 8 99 100 100 100 100 92 100 100 30 100 70 99 27 40 88 16 98
1 0 0 5 0 2 5 5 4 5 6 53 71 100 100 59 5 5 41 76 83 54 100 100 99 62 88 86 67 31 64 75 5 48 6 22 36 31
1 0 0 0 0 0 23 7 5 8 92 52 88 84 68 21 5 40 63 96 100 100 100 87 100 54 60 6 5 20 66 100 55 22 66 38 72 100
0 0 0 0 0 1 0 5 5 5 50 44 38 54 5 5 27 11 6 51 99 57 100 98 92 11 84 48 9 5 90 28 100 43 100 5 69 100
0 0 0 0 0 0 59 25 39 5 14 5 5 5 4 5 7 11 4 4 13 15 5 6 2 5 99 51 37 7 69 100 100 100 100 80 14 6
0 0 0 0 0 0 0 0 0 2 5 5 5 1 4 0 3 5 4 0 0 0 3 7 4 5 30 37 93 94 93 100 100 100 100 41 15 12
0 0 0 0 0 0 0 0 0 0 0 0 2 2 5 0 33 4 0 1 0 0 3 11 8 5 7 99 58 100 100 100 100 100 100 100 100 90
0 0 0 0 0 0 0 0 0 0 0 0 0 2 45 0 38 9 3 0 5 0 0 5 5 15 3 66 96 99 99 100 100 100 100 100 100 100
0 0 0 0 0 0 1 0 0 2 0 0 0 0 0 0 0 1 0 0 0 0 0 1 2 8 98 82 100 100 100 100 100 100 100 100 100 100
0 0 0 0 0 0 44 0 0 66 0 0 0 0 2 2 0 0 0 4 5 11 91 32 9 19 7 21 36 98 100 100 100 100 98 80 97 100
0 0 0 0 0 65 22 0 73 2 0 0 0 2 2 0 3 5 5 18 57 14 36 94 84 0 2 1 5 5 100 83 95 100 100 92 94 95
0 0 0 1 25 15 9 34 1 0 0 0 0 0 0 4 5 54 5 14 4 5 46 57 10 43 4 0 19 21 55 97 26 96 94 98 98 74
0 0 0 0 0 0 0 0 0 0 0 0 0 1 5 5 0 1 3 2 2 0 0 3 12 16 18 50 83 99 73 100 100 98 59 78 100 11
11 4 0 0 0 0 0 0 0 0 0 0 0 22 99 100 82 34 99 95 98 76 24 10 4 17 91 83 82 99 73 98 97 90 89 24 11 32
96 98 16 1 9 20 11 5 0 0 0 0 0 18 93 100 100 100 100 100 100 100 100 100 100 53 87 47 8 74 62 80 78 89 79 62 64 82
100 99 88 38 55 96 94 90 44 36 7 1 24 20 98 38 92 88 68 94 98 43 12 64 91 82 94 96 35 43 99 86 67 54 99 97 76 61
100 100 100 82 99 90 97 82 61 96 100 100 100 100 100 80 93 66 29 20 11 7 80 88 19 90 39 75 79 85 7 72 55 44 44 88 100 99
100 100 100 100 100 81 100 87 82 87 91 95 100 100 100 100 100 100 100 43 31 24 20 88 92 98 74 100 85 83 59 46 100 100 100 83 96 100
100 100 100 100 100 56 50 96 100 100 100 100 100 100 100 100 100 100 100 100 100 92 66 76 69 100 100 93 100 100 100 100 62 40 67 94 100 100

GFSNE_prec_cloud_075.txt.gz
Cloud_Cover
8 0 1 97 67 44 3 44 90 74 25 0 6 1 0 0 0 0 0 0 0 0 5 5 5 5 4 5 8 1 0 0 4 5 3 1 0 0
8 21 5 81 63 19 60 18 0 0 30 20 0 0 0 0 0 1 4 30 24 57 31 27 53 62 45 8 64 37 5 3 5 8 5 5 4 5
0 98 4 5 7 40 17 1 0 0 0 0 17 6 0 0 0 1 12 76 100 45 95 100 77 79 91 34 11 92 90 72 93 69 34 5 20 93
0 0 0 5 5 5 8 0 0 1 0 4 5 0 0 0 4 5 92 99 100 96 100 100 80 37 97 100 71 79 24 71 100 94 42 5 5 17
3 0 0 0 1 5 30 2 3 2 3 5 5 0 1 0 3 55 51 58 13 89 100 100 89 22 49 100 100 100 100 96 44 66 100 97 99 96
5 2 0 2 0 0 5 6 2 5 6 26 5 5 5 4 5 5 5 90 97 98 57 11 5 41 8 98 100 100 100 98 92 43 66 64 91 48
17 0 0 0 0 0 0 9 5 5 5 6 5 5 5 5 5 35 100 87 50 61 5 5 5 5 7 52 100 100 100 100 98 90 75 89 100 68
4 0 0 0 0 0 0 0 4 2 5 5 5 5 5 5 5 6 85 18 47 5 5 16 5 18 14 97 100 100 100 100 100 100 100 100 100 57
0 0 0 0 0 0 0 0 0 0 0 0 0 4 1 1 2 4 5 5 6 5 5 4 29 17 50 92 100 100 100 100 100 100 100 100 100 100
0 0 0 0 0 4 0 0 0 0 0 0 0 0 0 1 0 0 0 5 49 5 19 45 8 15 5 6 99 100 100 100 100 100 100 100 100 100
0 0 0 0 0 0 0 0 0 0 0 0 0 0 0 0 0 0 0 4 4 5 8 13 88 100 99 76 98 98 100 100 100 100 100 100 100 100
0 0 0 0 0 0 0 0 0 0 0 0 0 1 39 0 6 9 0 0 26 78 32 82 43 96 100 78 7 7 5 93 96 100 100 82 97 100
0 0 0 0 0 0 0 0 0 2 0 0 0 0 0 0 0 0 1 5 8 51 16 3 20 5 6 25 57 64 89 69 95 85 13 100 75 100
0 0 0 0 0 0 1 0 0 66 0 0 0 1 0 0 0 0 0 5 9 4 61 36 17 1 3 5 24 33 6 6 4 4 12 38 100 22
0 0 0 0 0 65 8 0 10 2 0 0 0 0 0 0 0 0 0 0 0 0 0 1 12 1 1 0 0 4 35 11 92 40 100 24 98 84
0 1 0 0 37 8 20 20 0 0 0 0 0 0 0 0 0 0 0 0 0 0 0 0 4 15 0 0 0 0 0 0 5 38 100 66 5 6
4 30 3 0 0 0 0 0 0 0 0 0 0 0 0 0 0 0 0 0 0 0 2 2 9 67 98 92 6 0 0 4 25 92 92 89 14 92
62 61 33 14 19 3 0 1 0 0 0 0 0 0 0 3 5 1 4 4 5 7 9 18 48 100 92 93 31 91 20 4 14 91 76 92 14 100
100 100 100 98 5 32 0 16 37 13 19 0 0 0 0 5 95 7 6 54 33 28 81 24 12 22 99 100 33 58 70 76 5 41 100 39 94 50
77 100 100 85 24 17 15 13 96 100 98 8 49 24 0 0 62 77 99 100 99 67 14 12 5 79 100 82 85 100 100 20 63 92 87 100 79 74
5 100 100 100 89 12 8 51 8 20 42 67 92 100 100 100 100 66 33 100 100 100 99 36 5 80 100 100 100 81 99 100 74 88 100 86 84 74
5 94 97 100 28 64 20 14 38 15 5 10 89 88 99 51 87 100 100 100 100 100 100 100 92 100 99 100 100 100 100 37 56 38 45 35 50 76
20 5 5 91 52 7 100 100 90 99 30 99 100 100 100 100 99 58 100 54 87 79 98 100 100 100 100 100 100 100 100 90 100 52 40 53 39 88